User: anonymous   Login
Location: Oracle State Park
(32.6095°N, 110.7330°W)
Time: 16:14:22
(UTC-07:00)
Language:

CUBESAT XI-V - Orbit

View from above orbital plane
View from above orbital plane
View from above satellite
View from above satellite

Ground track
Ground track

The orbit data is extracted from the following two-line orbital elements,

1 28895U 05043F   19141.06957425  .00000091  00000-0  26251-4 0  9998
2 28895  97.9549 284.7889 0018234  83.2048 277.1229 14.63660952723303
Epoch (UTC): 21 May 2019 01:40:11
Eccentricity: 0.0018234
inclination: 97.9549°
perigee height: 668 km
apogee height: 694 km
right ascension of ascending node: 284.7889°
argument of perigee: 83.2048°
revolutions per day: 14.63660952
mean anomaly at epoch: 277.1229°
orbit number at epoch: 72330

The dashed part of the orbit path shows where the satellite is in the earth's shadow,  

DLR